Location: *
(2.5500°S, 65.9667°W)
Time: 22:01:16
(UTC+00:00)

SRMSAT - Pass Details

Date: 30 June 2022
Orbit: 848 x 865 km, 20.0° (Epoch: 07 August)

Event Time Altitude Azimuth Distance (km) Brightness Sun altitude
Exits shadow 08:47:58 19° 316° (NW) 1,918 ? -23.8°
Maximum altitude 08:51:58 46° 21° (NNE) 1,122 ? -22.9°
Drops below altitude 10° 08:57:37 10° 93° (E) 2,468 ? -21.6°
Sets 09:00:17 0° 99° (E) 3,407 ? -21.0°
